Weather Roundup
Issued by NWS Springfield, MO

Home | Current Version | Previous Version | Text Only | Print | Product List | Glossary On
Versions: 1 2 3 4 5 6 7 8 9 10 11 12 13 14 15 16 17 18 19 20 21 22 23 24 25 26 27 28 29 30 31 32 33 34 35 36 37 38 39 40 41 42 43 44 45 46 47 48 49 50
000
NZUS99 KSGF 021959
HRRSGF

HOURLY WEATHER
NATIONAL WEATHER SERVICE SPRINGFIELD MO
300 PM CDT TUE SEP 02 2014

......SGF CWA......

CITY           SKY/WX    TMP DP  RH WIND       PRES   REMARKS
SPRINGFIELD    CLOUDY    76  65  68 W8        30.01F
JOPLIN         CLOUDY    77  67  71 CALM      30.00F
WEST PLAINS    CLOUDY    74  65  73 VRB6      30.02F
ROLLA          CLOUDY    75  66  73 NW8       30.00F
OSAGE BEACH    CLOUDY    79  66  65 W9        30.00F
BRANSON        CLOUDY    73  66  78 CALM      30.02F

......SURROUNDING SGF CWA......

CITY           SKY/WX    TMP DP  RH WIND       PRES   REMARKS
CHANUTE        MOSUNNY   82  64  54 SW8       30.00F
PARSONS        PTSUNNY   81  67  62 S7        30.00F
COFFEYVILLE    PTSUNNY   78  68  71 S9        29.99F
EMPORIA        MOSUNNY   82  70  66 S8        30.00F
SILOAM SPRINGS CLOUDY    77  64  65 SW5       30.00F
HARRISON AR    CLOUDY    76  69  79 N6        29.99F
NEAR YELLVILLE CLOUDY    73  64  73 NW6       29.96F

......KANSAS AND MISSOURI......

CITY           SKY/WX    TMP DP  RH WIND       PRES   REMARKS
KANSAS CTY INT PTSUNNY   81  67  62 SW9       30.00F
DOWNTOWN KC    MOSUNNY   82  67  60 SW8       29.98F
COLUMBIA       CLOUDY    79  71  76 W9        29.99F
SEDALIA        PTSUNNY   78  70  76 SW10      30.01F
ST JOSEPH      SUNNY     83  64  52 NW7       29.99F
ST LOUIS       PTSUNNY   82  69  64 NW9       29.98F
SPIRIT OF STL  CLOUDY    81  69  67 W7        29.96F
WICHITA        MOSUNNY   86  65  49 S14       29.98F
TOPEKA         PTSUNNY   82  70  66 S8        30.00F
OLATHE         MOSUNNY   79  70  74 VRB6      30.00F

......TENNESSEE......

CITY           SKY/WX    TMP DP  RH WIND       PRES   REMARKS
MEMPHIS        CLOUDY    86  74  67 W9        29.98F HX  94
NASHVILLE      PTSUNNY   90  71  53 SW7G18    29.96F HX  96

......ARKANSAS.......

CITY           SKY/WX    TMP DP  RH WIND       PRES   REMARKS
FAYETTEVILLE   CLOUDY    76  67  73 SW6       29.98F
FT SMITH       CLOUDY    72  68  87 E10       29.94F
LITTLE ROCK    CLOUDY    86  63  45 CALM      29.95F

......OKLAHOMA.......

CITY           SKY/WX    TMP DP  RH WIND       PRES   REMARKS
TULSA          CLOUDY    74  67  78 S8        29.97F
PONCA CITY     MOSUNNY   84  70  62 S10       29.96F
MCALESTER      CLOUDY    81  69  67 S10G20    29.95F
OKLAHOMA CITY  PTSUNNY   88  70  55 SE18G31   29.95F HX  93

......IOWA............

CITY           SKY/WX    TMP DP  RH WIND       PRES   REMARKS
DES MOINES     MOSUNNY   79  57  46 W10       29.96F
QUAD CITIES    MOSUNNY   82  61  48 W8G18     29.93F

......ILLINOIS........

CITY           SKY/WX    TMP DP  RH WIND       PRES   REMARKS
QUINCY         MOSUNNY   81  64  56 W9        29.97F
CHICAGO        PTSUNNY   82  55  39 NW13      29.90S



USA.gov is the U.S. government's official web portal to all federal, state and local government web resources and services.